IK4PKL-13 Weather Reports


time (UTC)temp
C
wind
direction
speed
KPH
gust
KPH
rain 1hr
cm
rain 24hr
cm
rain mn
cm
humidity
%
barometer
mb
20260507103532 20 33 9.7 17.7 0.00 0.00 0.00 57 1016.9
20260507102543 20 28 9.7 20.9 0.00 0.00 0.00 56 1017.0
20260507101547 21 332 6.4 12.9 0.00 0.00 0.00 54 1016.8
20260507100559 20 41 6.4 11.3 0.00 0.00 0.00 55 1016.9
20260507095531 20 343 6.4 14.5 0.00 0.00 0.00 55 1017.0
20260507094523 20 24 6.4 12.9 0.00 0.00 0.00 56 1017.0
20260507093547 20 346 8.0 14.5 0.00 0.00 0.00 57 1017.0
20260507092600 20 352 4.8 11.3 0.00 0.00 0.00 58 1016.9
20260507091530 20 19 6.4 12.9 0.00 0.00 0.00 59 1016.9
20260507090524 20 20 4.8 14.5 0.00 0.00 0.00 60 1016.9
20260507085547 19 41 4.8 12.9 0.00 0.00 0.00 61 1016.9
20260507084558 19 10 6.4 16.1 0.00 0.00 0.00 64 1016.9
20260507083552 19 22 8.0 14.5 0.00 0.00 0.00 66 1016.8
20260507082522 19 20 6.4 14.5 0.00 0.00 0.00 68 1016.6
20260507081546 20 36 4.8 12.9 0.00 0.00 0.00 56 1016.4
20260507080539 21 157 1.6 4.8 0.00 0.00 0.00 53 1016.3
20260507075552 21 179 3.2 6.4 0.00 0.00 0.00 56 1016.3
20260507074523 21 203 1.6 6.4 0.00 0.00 0.00 56 1016.3
20260507073547 20 238 3.2 6.4 0.00 0.00 0.00 57 1016.3
20260507071531 20 50 1.6 6.4 0.00 0.03 0.00 61 1016.4
20260507070524 20 113 1.6 3.2 0.00 0.03 0.00 62 1016.4
20260507065531 20 126 1.6 4.8 0.00 0.03 0.00 65 1016.3
20260507064523 19 86 1.6 3.2 0.00 0.03 0.00 69 1016.3
20260507063546 18 106 1.6 4.8 0.00 0.03 0.00 73 1016.4
20260507062538 17 89 1.6 4.8 0.00 0.03 0.00 77 1016.4
20260507061532 17 51 3.2 4.8 0.00 0.03 0.00 77 1016.4
20260507060523 17 132 0.0 1.6 0.00 0.03 0.00 77 1016.3
20260507055546 17 97 0.0 4.8 0.00 0.03 0.00 81 1016.3
20260507054538 16 122 1.6 3.2 0.00 0.03 0.00 84 1016.1
20260507053530 15 186 3.2 6.4 0.00 0.03 0.00 88 1016.0
20260507052522 15 181 0.0 3.2 0.00 0.03 0.00 88 1016.0
20260507051606 15 0.0 0.0 0.00 0.03 0.00 88 1015.9
20260507050539 15 0.0 0.0 0.00 0.03 0.00 88 1016.0
20260507045517 15 91 0.0 1.6 0.00 0.03 0.00 88 1015.6
20260507044524 15 187 1.6 1.6 0.00 0.05 0.00 88 1015.5
20260507043606 15 125 0.0 1.6 0.00 0.08 0.00 88 1015.3
20260507042538 15 130 1.6 4.8 0.00 0.10 0.00 88 1015.3
20260507041547 15 130 1.6 4.8 0.00 0.13 0.00 88 1015.3
20260507040600 15 135 1.6 4.8 0.00 0.13 0.00 88 1015.1
20260507035530 15 113 1.6 3.2 0.00 0.13 0.00 87 1015.1
20260507034522 15 118 1.6 4.8 0.00 0.13 0.00 86 1015.0
20260507033547 15 127 1.6 6.4 0.00 0.13 0.00 89 1015.0
20260507032538 15 115 1.6 3.2 0.00 0.13 0.00 89 1015.1
20260507031531 15 117 1.6 4.8 0.00 0.13 0.00 88 1015.1
20260507030522 15 135 1.6 4.8 0.00 0.13 0.00 88 1015.1
20260507025546 15 0.0 0.0 0.00 0.13 0.00 87 1015.0
20260507024539 15 0.0 0.0 0.00 0.13 0.00 86 1015.0
20260507023530 15 0.0 0.0 0.00 0.13 0.00 86 1014.9
20260507022524 15 0.0 0.0 0.00 0.13 0.00 86 1014.9
20260507021530 15 114 0.0 1.6 0.00 0.13 0.00 85 1015.0
20260507020538 16 104 0.0 1.6 0.00 0.13 0.00 85 1015.0
20260507015551 16 120 0.0 1.6 0.00 0.13 0.00 85 1015.0
20260507014542 16 0.0 0.0 0.00 0.13 0.00 84 1014.9
20260507013547 16 108 0.0 1.6 0.00 0.13 0.00 84 1014.9
20260507012522 16 134 1.6 3.2 0.00 0.13 0.00 83 1015.0
20260507011547 16 0.0 0.0 0.00 0.13 0.00 82 1015.0
20260507010539 16 89 1.6 4.8 0.00 0.13 0.00 82 1015.0
20260507005531 16 98 1.6 3.2 0.00 0.13 0.00 79 1015.0
20260507004523 17 0.0 0.0 0.00 0.13 0.00 78 1015.0
20260507003548 17 103 0.0 1.6 0.00 0.13 0.00 77 1014.9
20260507002538 17 0.0 1.6 0.00 0.13 0.00 77 1015.1
20260507001530 17 74 0.0 3.2 0.00 0.13 0.00 77 1015.1
20260507000522 17 309 0.0 3.2 0.00 0.13 0.00 75 1015.2
20260506235547 17 194 1.6 4.8 0.00 0.13 0.00 73 1015.1
20260506234540 18 151 1.6 4.8 0.00 0.13 0.00 71 1014.9
20260506233530 17 168 1.6 3.2 0.00 0.13 0.00 72 1014.9
20260506232522 17 184 3.2 4.8 0.00 0.13 0.00 73 1014.9
20260506231607 17 160 1.6 9.7 0.00 0.13 0.00 74 1014.6
20260506230539 18 150 3.2 11.3 0.00 0.13 0.00 72 1014.8
20260506225532 18 156 4.8 12.9 0.00 0.13 0.00 72 1014.8
20260506224542 18 158 4.8 9.7 0.00 0.13 0.00 73 1014.9
20260506223546 17 175 6.4 14.5 0.00 0.13 0.00 73 1014.8
20260506222540 17 162 4.8 14.5 0.00 0.13 0.00 74 1014.9
20260506221531 17 147 3.2 11.3 0.00 0.13 0.00 74 1015.0
20260506220544 17 150 3.2 6.4 0.00 0.13 0.00 75 1014.9
20260506215532 17 150 3.2 11.3 0.00 0.13 0.13 76 1015.0
20260506214522 16 138 1.6 4.8 0.00 0.13 0.13 80 1015.0
20260506213546 17 133 3.2 6.4 0.00 0.13 0.13 81 1014.9
20260506212639 17 118 3.2 4.8 0.00 0.13 0.13 79 1015.0
20260506211530 17 115 1.6 4.8 0.00 0.18 0.13 80 1015.0
20260506210522 17 123 0.0 1.6 0.00 0.18 0.13 81 1015.0
20260506205547 17 153 1.6 1.6 0.00 0.23 0.13 79 1015.1
20260506204539 17 126 0.0 3.2 0.00 0.33 0.13 78 1015.0
20260506203530 17 129 1.6 3.2 0.00 0.41 0.13 77 1014.9
20260506202523 17 96 1.6 4.8 0.00 0.41 0.13 77 1014.9
20260506201548 17 72 1.6 4.8 0.00 0.43 0.13 77 1014.8
20260506200540 17 83 1.6 3.2 0.00 0.46 0.13 77 1014.8
20260506195530 17 93 1.6 3.2 0.00 0.48 0.13 77 1014.8
20260506194522 18 72 1.6 3.2 0.00 0.53 0.13 76 1014.7
20260506193546 18 83 1.6 4.8 0.00 0.53 0.13 76 1014.5
20260506192538 18 57 1.6 4.8 0.00 0.56 0.13 76 1014.5
20260506191531 18 51 1.6 4.8 0.00 0.56 0.13 76 1014.3
20260506190522 18 28 1.6 4.8 0.00 0.56 0.13 75 1014.1
20260506185606 18 68 3.2 6.4 0.00 0.56 0.13 74 1014.0
20260506184539 18 359 3.2 12.9 0.00 0.58 0.13 73 1014.0
20260506183530 18 331 4.8 12.9 0.00 0.64 0.13 72 1013.8
20260506182523 19 321 3.2 6.4 0.00 0.74 0.13 68 1013.5
20260506181530 20 189 3.2 4.8 0.00 0.86 0.13 66 1013.3
20260506180539 20 166 3.2 6.4 0.00 0.97 0.13 67 1013.2
20260506175531 20 151 1.6 4.8 0.00 1.07 0.13 66 1013.1
20260506174522 20 170 3.2 6.4 0.00 1.14 0.13 65 1013.1
20260506173546 20 175 4.8 11.3 0.00 1.19 0.13 64 1013.0
20260506172538 21 154 3.2 9.7 0.00 1.22 0.13 63 1012.8
20260506171550 21 166 4.8 14.5 0.00 1.24 0.13 63 1012.8
20260506170543 21 175 4.8 14.5 0.00 1.24 0.13 62 1012.7
20260506165607 21 173 4.8 11.3 0.00 1.27 0.13 61 1012.6
20260506164538 21 184 6.4 14.5 0.00 1.27 0.13 61 1012.7
20260506163532 21 182 6.4 14.5 0.00 1.27 0.13 60 1012.7
20260506162545 22 179 4.8 12.9 0.00 1.27 0.13 59 1012.8
20260506161606 22 158 6.4 12.9 0.00 1.27 0.13 58 1012.6
20260506160538 22 175 6.4 22.5 0.00 1.27 0.13 58 1012.8
20260506155531 22 171 6.4 17.7 0.00 1.27 0.13 58 1012.8
20260506154523 22 160 6.4 17.7 0.00 1.27 0.13 57 1012.7
20260506153608 22 161 4.8 12.9 0.00 1.27 0.13 56 1012.6
20260506152538 23 189 8.0 14.5 0.00 1.27 0.13 57 1012.8
20260506151532 23 180 6.4 20.9 0.00 1.27 0.13 57 1012.8
20260506150522 22 138 4.8 17.7 0.00 1.27 0.13 58 1012.7
20260506145546 22 147 4.8 16.1 0.00 1.27 0.13 58 1012.7
20260506144539 22 153 4.8 17.7 0.00 1.27 0.13 59 1012.6
20260506143530 22 176 4.8 12.9 0.00 1.27 0.13 58 1012.5
20260506142538 23 188 6.4 22.5 0.00 1.27 0.13 55 1012.5
20260506141530 22 183 8.0 17.7 0.00 1.27 0.13 56 1012.5
20260506140544 22 192 8.0 22.5 0.00 1.27 0.13 57 1012.7
20260506135546 22 177 9.7 25.7 0.00 1.27 0.13 57 1012.9
20260506134538 22 195 9.7 17.7 0.00 1.27 0.13 57 1013.1
20260506133546 22 164 6.4 20.9 0.00 1.27 0.13 56 1013.2
20260506132538 22 161 6.4 20.9 0.00 1.27 0.13 54 1013.4
20260506131530 22 181 6.4 24.1 0.00 1.27 0.13 54 1013.5
20260506130524 23 184 9.7 17.7 0.00 1.27 0.13 53 1013.6
20260506125546 22 143 6.4 16.1 0.00 1.27 0.13 54 1013.7
20260506124538 22 159 6.4 14.5 0.00 1.27 0.13 56 1013.9
20260506123530 22 182 8.0 17.7 0.00 1.27 0.13 55 1013.8
20260506122544 22 188 8.0 20.9 0.00 1.27 0.13 58 1013.7
20260506121546 22 170 4.8 14.5 0.00 1.27 0.13 57 1013.7
20260506120522 22 181 8.0 16.1 0.00 1.27 0.13 58 1013.8
20260506115549 22 187 6.4 14.5 0.00 1.27 0.13 56 1013.8
20260506114538 22 182 8.0 14.5 0.00 1.27 0.13 58 1013.8
20260506113550 22 138 9.7 27.4 0.00 1.27 0.13 58 1014.0
20260506112537 22 158 6.4 12.9 0.00 1.27 0.13 60 1014.1
20260506111531 21 163 6.4 17.7 0.00 1.27 0.13 62 1014.3
20260506110602 21 167 6.4 20.9 0.00 1.27 0.13 63 1014.4
20260506105546 21 167 6.4 20.9 0.00 1.27 0.13 64 1014.4
20260506104620 21 155 4.8 14.5 0.00 1.27 0.13 65 1014.4